AAL114 SKGB-SKPS

Flight info

Callsign AAL114
Flight time N/A
Altitude 20000
Route ANKAS G675 MER
Aircraft B738/M-SDE2E3FGHIRWXY/LB1

Departure

Time 2026-04-22 02:33
Airport Marco Fidel Suarez Air Base (SKGB)

Arrival

Time N/A
Airport Antonio Nariño Airport (SKPS)
Time Latitude Longitude Altitude Speed Heading
2026-04-22 02:22 3.45486 -76.49770 3149 ft 0 kts 290°
2026-04-22 02:27 3.45493 -76.49789 3150 ft 4 kts 290°
2026-04-22 02:28 3.45495 -76.49795 3150 ft 0 kts 290°
2026-04-22 02:30 3.45497 -76.49800 3151 ft 4 kts 290°
2026-04-22 02:30 3.45509 -76.49834 3151 ft 5 kts 290°
2026-04-22 02:30 3.45531 -76.49881 3132 ft 8 kts 300°
2026-04-22 02:30 3.45524 -76.49942 3133 ft 12 kts 245°
2026-04-22 02:31 3.45487 -76.50022 3134 ft 12 kts 245°
2026-04-22 02:31 3.45447 -76.50099 3138 ft 13 kts 243°
2026-04-22 02:31 3.45402 -76.50186 3140 ft 15 kts 243°
2026-04-22 02:31 3.45381 -76.50282 3141 ft 14 kts 278°
2026-04-22 02:32 3.45394 -76.50379 3143 ft 14 kts 277°
2026-04-22 02:32 3.45417 -76.50451 3115 ft 9 kts 310°
2026-04-22 02:32 3.45466 -76.50441 3114 ft 6 kts 59°
2026-04-22 02:32 3.45473 -76.50429 3128 ft 18 kts 59°
2026-04-22 02:33 3.45667 -76.50066 3140 ft 98 kts 62°
2026-04-22 02:33 3.46109 -76.49252 3130 ft 165 kts 61°
2026-04-22 02:33 3.46685 -76.48172 3680 ft 186 kts 63°
2026-04-22 02:33 3.47000 -76.46945 3770 ft 188 kts 99°
2026-04-22 02:34 3.46334 -76.45878 3801 ft 185 kts 149°
2026-04-22 02:34 3.45084 -76.45557 3736 ft 187 kts 174°
2026-04-22 02:34 3.43685 -76.45553 3969 ft 217 kts 192°
2026-04-22 02:34 3.42224 -76.46063 4090 ft 220 kts 201°
2026-04-22 02:35 3.40819 -76.46628 4066 ft 217 kts 202°
2026-04-22 02:35 3.39385 -76.47213 4180 ft 231 kts 202°
2026-04-22 02:35 3.37809 -76.47856 4526 ft 257 kts 202°
2026-04-22 02:35 3.36047 -76.48571 4749 ft 288 kts 202°
2026-04-22 02:36 3.34091 -76.49359 4975 ft 317 kts 202°
2026-04-22 02:36 3.31955 -76.50216 5191 ft 345 kts 202°
2026-04-22 02:36 3.29649 -76.51135 5559 ft 364 kts 201°
2026-04-22 02:36 3.27290 -76.52072 6373 ft 366 kts 201°
2026-04-22 02:37 3.24905 -76.53017 7146 ft 370 kts 202°
2026-04-22 02:37 3.22503 -76.53968 7852 ft 374 kts 202°
2026-04-22 02:37 3.20067 -76.54932 8549 ft 378 kts 202°
2026-04-22 02:37 3.17607 -76.55904 9276 ft 381 kts 202°
2026-04-22 02:38 3.15131 -76.56883 9966 ft 385 kts 202°
2026-04-22 02:38 3.12631 -76.57869 10736 ft 388 kts 202°
2026-04-22 02:38 3.10100 -76.58870 11294 ft 393 kts 202°
2026-04-22 02:38 3.07541 -76.59881 11862 ft 397 kts 202°
2026-04-22 02:39 3.04969 -76.60898 12467 ft 399 kts 202°
2026-04-22 02:39 3.02376 -76.61923 13005 ft 403 kts 202°
2026-04-22 02:39 2.99761 -76.62975 13556 ft 406 kts 203°
2026-04-22 02:39 2.97159 -76.64082 14103 ft 408 kts 204°
2026-04-22 02:40 2.94539 -76.65223 14503 ft 413 kts 204°
2026-04-22 02:40 2.91902 -76.66377 14990 ft 414 kts 204°
2026-04-22 02:40 2.89258 -76.67533 15508 ft 415 kts 204°
2026-04-22 02:40 2.86596 -76.68692 15916 ft 419 kts 204°
2026-04-22 02:41 2.83908 -76.69858 16324 ft 422 kts 204°
2026-04-22 02:41 2.81210 -76.71025 16793 ft 423 kts 204°
2026-04-22 02:41 2.78496 -76.72197 17209 ft 426 kts 204°
2026-04-22 02:41 2.75769 -76.73374 17602 ft 429 kts 204°
2026-04-22 02:42 2.73020 -76.74559 18000 ft 431 kts 203°
2026-04-22 02:42 2.70260 -76.75750 18389 ft 433 kts 203°
2026-04-22 02:42 2.67484 -76.76947 18739 ft 435 kts 203°
2026-04-22 02:42 2.65643 -76.77741 18961 ft 436 kts 203°
2026-04-22 02:43 2.62847 -76.78947 19272 ft 438 kts 204°
2026-04-22 02:43 2.60043 -76.80156 19562 ft 440 kts 204°
2026-04-22 02:43 2.57227 -76.81370 19876 ft 442 kts 204°
2026-04-22 02:43 2.54399 -76.82590 20122 ft 442 kts 204°
2026-04-22 02:44 2.51566 -76.83812 20148 ft 445 kts 204°
2026-04-22 02:44 2.48716 -76.85041 20145 ft 445 kts 204°
2026-04-22 02:44 2.45880 -76.86264 20138 ft 444 kts 204°
2026-04-22 02:44 2.43064 -76.87526 20131 ft 442 kts 207°
2026-04-22 02:45 2.40495 -76.89181 20033 ft 436 kts 218°
2026-04-22 02:45 2.38294 -76.91211 19595 ft 428 kts 227°
2026-04-22 02:45 2.36300 -76.93417 18963 ft 426 kts 227°
2026-04-22 02:45 2.34310 -76.95615 18178 ft 426 kts 227°
2026-04-22 02:46 2.32312 -76.97803 17376 ft 426 kts 227°
2026-04-22 02:46 2.30310 -76.99980 16707 ft 423 kts 227°
2026-04-22 02:46 2.28353 -77.02097 16214 ft 416 kts 227°
2026-04-22 02:46 2.26362 -77.04242 15478 ft 415 kts 226°
2026-04-22 02:47 2.24184 -77.06124 14833 ft 413 kts 214°
2026-04-22 02:47 2.21642 -77.07423 14294 ft 409 kts 201°
2026-04-22 02:47 2.18936 -77.08206 13496 ft 401 kts 191°
2026-04-22 02:47 2.16191 -77.08663 12508 ft 398 kts 189°
2026-04-22 02:48 2.13573 -77.09089 12252 ft 375 kts 190°
2026-04-22 02:48 2.11077 -77.09503 12115 ft 355 kts 190°
2026-04-22 02:48 2.08655 -77.09915 12006 ft 341 kts 191°
2026-04-22 02:48 2.06384 -77.10306 11871 ft 322 kts 191°
2026-04-22 02:49 2.04258 -77.10676 11756 ft 305 kts 191°
2026-04-22 02:49 2.02224 -77.11032 11648 ft 289 kts 191°
2026-04-22 02:49 2.00291 -77.11372 11465 ft 278 kts 191°
2026-04-22 02:49 1.98399 -77.11705 11082 ft 275 kts 192°
2026-04-22 02:50 1.96568 -77.12227 10643 ft 274 kts 202°
2026-04-22 02:50 1.94812 -77.12949 10252 ft 272 kts 204°
2026-04-22 02:50 1.93086 -77.13700 9872 ft 270 kts 204°
2026-04-22 02:50 1.91356 -77.14451 9511 ft 271 kts 204°
2026-04-22 02:51 1.89633 -77.15189 9275 ft 268 kts 204°
2026-04-22 02:51 1.87920 -77.15915 9009 ft 267 kts 204°
2026-04-22 02:51 1.86212 -77.16632 8847 ft 266 kts 203°